Location: Chatou
(48.8898°N, 2.1586°E)
Time: 06:59:14
(UTC+00:00)

CZ-4 R/B - Pass Details

Date: 03 February 2023
Orbit: 525 x 587 km, 97.7° (Epoch: 21 March)

Event Time Altitude Azimuth Distance (km) Brightness Sun altitude
Rises 19:37:18 0° 191° (SSW) 2,800 5.0 -27.4°
Reaches altitude 10° 19:39:40 10° 203° (SSW) 1,899 4.2 -27.8°
Maximum altitude 19:43:17 29° 264° (W) 1,068 3.3 -28.3°
Drops below altitude 10° 19:46:53 10° 326° (NW) 1,885 4.5 -28.9°
Sets 19:49:15 0° 338° (NNW) 2,777 5.3 -29.3°
